Time,TemperatureF,DewpointF,PressureIn,WindDirection,WindDirectionDegrees,WindSpeedMPH,WindSpeedGustMPH,Humidity,HourlyPrecipIn,Conditions,Clouds,dailyrainin,SoftwareType,DateUTC
2013-08-09 00:09:00,71.1,70.5,29.77,ENE,67,0.0,-999.0,98,-99.99,,,0.00,Acu-Link.com,2013-08-09 04:09:00,
2013-08-09 00:24:00,70.9,70.3,29.77,WSW,247,0.0,-999.0,98,-99.99,,,0.00,Acu-Link.com,2013-08-09 04:24:00,
2013-08-09 00:39:00,70.9,70.3,29.77,WSW,247,0.0,-999.0,98,-99.99,,,0.00,Acu-Link.com,2013-08-09 04:39:00,
2013-08-09 00:55:00,70.5,69.9,29.77,WSW,247,0.0,-999.0,98,-99.99,,,0.00,Acu-Link.com,2013-08-09 04:55:00,
2013-08-09 01:10:00,70.3,69.7,29.76,WSW,247,0.0,-999.0,98,-99.99,,,0.00,Acu-Link.com,2013-08-09 05:10:00,
2013-08-09 01:25:00,70.2,69.6,29.77,WSW,247,0.0,-999.0,98,-99.99,,,0.00,Acu-Link.com,2013-08-09 05:25:00,
2013-08-09 01:41:00,70.2,69.6,29.79,WSW,247,0.0,-999.0,98,-99.99,,,0.00,Acu-Link.com,2013-08-09 05:41:00,
2013-08-09 01:56:00,70.2,69.6,29.77,WSW,247,0.0,-999.0,98,-99.99,,,0.00,Acu-Link.com,2013-08-09 05:56:00,
2013-08-09 02:11:00,70.2,69.6,29.77,WSW,247,0.0,-999.0,98,-99.99,,,0.00,Acu-Link.com,2013-08-09 06:11:00,
2013-08-09 02:26:00,70.2,69.6,29.77,WSW,247,0.0,-999.0,98,-99.99,,,0.00,Acu-Link.com,2013-08-09 06:26:00,
2013-08-09 02:42:00,70.2,69.6,29.78,WSW,247,0.0,-999.0,98,-99.99,,,0.00,Acu-Link.com,2013-08-09 06:42:00,
2013-08-09 02:57:00,70.3,69.7,29.78,WSW,247,0.0,-999.0,98,-99.99,,,0.00,Acu-Link.com,2013-08-09 06:57:00,
2013-08-09 03:12:00,70.3,69.7,29.78,WSW,247,0.0,-999.0,98,-99.99,,,0.00,Acu-Link.com,2013-08-09 07:12:00,
2013-08-09 03:28:00,70.5,69.9,29.77,South,180,0.0,-999.0,98,-99.99,,,0.00,Acu-Link.com,2013-08-09 07:28:00,
2013-08-09 03:43:00,70.5,69.9,29.79,NW,315,0.0,-999.0,98,-99.99,,,0.00,Acu-Link.com,2013-08-09 07:43:00,
2013-08-09 03:58:00,70.5,69.9,29.79,WSW,247,0.0,-999.0,98,-99.99,,,0.00,Acu-Link.com,2013-08-09 07:58:00,
2013-08-09 04:14:00,70.5,69.9,29.79,ENE,67,0.0,-999.0,98,-99.99,,,0.00,Acu-Link.com,2013-08-09 08:14:00,
2013-08-09 04:30:00,70.5,69.9,29.79,SW,225,0.0,-999.0,98,-99.99,,,0.00,Acu-Link.com,2013-08-09 08:30:00,
2013-08-09 04:45:00,70.5,69.9,29.78,SSW,202,0.0,-999.0,98,-99.99,,,0.00,Acu-Link.com,2013-08-09 08:45:00,
2013-08-09 05:00:00,70.5,69.9,29.78,ENE,67,0.0,-999.0,98,-99.99,,,0.00,Acu-Link.com,2013-08-09 09:00:00,
2013-08-09 05:15:00,70.3,69.7,29.79,WSW,247,0.0,-999.0,98,-99.99,,,0.00,Acu-Link.com,2013-08-09 09:15:00,
2013-08-09 05:30:00,70.3,69.7,29.79,SSW,202,0.0,-999.0,98,-99.99,,,0.00,Acu-Link.com,2013-08-09 09:30:00,
2013-08-09 05:45:00,70.5,69.9,29.80,SSE,157,0.0,-999.0,98,-99.99,,,0.00,Acu-Link.com,2013-08-09 09:45:00,
2013-08-09 06:00:00,70.5,69.9,29.79,SW,225,0.0,-999.0,98,-99.99,,,0.00,Acu-Link.com,2013-08-09 10:00:00,
2013-08-09 06:16:00,71.1,70.5,29.80,South,180,0.0,-999.0,98,-99.99,,,0.00,Acu-Link.com,2013-08-09 10:16:00,
2013-08-09 06:31:00,71.1,70.5,29.80,NNW,337,0.0,-999.0,98,-99.99,,,0.00,Acu-Link.com,2013-08-09 10:31:00,
2013-08-09 06:46:00,71.2,70.6,29.80,NNW,337,0.0,-999.0,98,-99.99,,,0.00,Acu-Link.com,2013-08-09 10:46:00,
2013-08-09 07:02:00,71.2,70.6,29.81,NNW,337,0.0,-999.0,98,-99.99,,,0.00,Acu-Link.com,2013-08-09 11:02:00,
2013-08-09 07:17:00,71.4,70.8,29.81,South,180,0.0,-999.0,98,-99.99,,,0.00,Acu-Link.com,2013-08-09 11:17:00,
2013-08-09 07:32:00,71.8,71.2,29.81,South,180,0.0,-999.0,98,-99.99,,,0.00,Acu-Link.com,2013-08-09 11:32:00,
2013-08-09 07:47:00,72.0,71.4,29.82,South,180,0.0,-999.0,98,-99.99,,,0.00,Acu-Link.com,2013-08-09 11:47:00,
2013-08-09 08:03:00,72.3,71.7,29.82,South,180,0.0,-999.0,98,-99.99,,,0.00,Acu-Link.com,2013-08-09 12:03:00,
2013-08-09 08:18:00,72.7,72.1,29.82,SSE,157,0.0,-999.0,98,-99.99,,,0.00,Acu-Link.com,2013-08-09 12:18:00,
2013-08-09 08:34:00,73.0,72.4,29.83,ENE,67,0.0,-999.0,98,-99.99,,,0.00,Acu-Link.com,2013-08-09 12:34:00,
2013-08-09 08:49:00,73.6,73.0,29.83,SSE,157,1.7,-999.0,98,-99.99,,,0.00,Acu-Link.com,2013-08-09 12:49:00,
2013-08-09 09:04:00,73.9,73.3,29.84,SSE,157,2.7,-999.0,98,-99.99,,,0.00,Acu-Link.com,2013-08-09 13:04:00,
2013-08-09 09:20:00,74.5,73.9,29.83,SSE,157,1.7,-999.0,98,-99.99,,,0.00,Acu-Link.com,2013-08-09 13:20:00,
2013-08-09 09:35:00,74.8,74.2,29.84,SW,225,0.0,-999.0,98,-99.99,,,0.00,Acu-Link.com,2013-08-09 13:35:00,
2013-08-09 09:50:00,75.7,75.1,29.84,SSE,157,1.1,-999.0,98,-99.99,,,0.00,Acu-Link.com,2013-08-09 13:50:00,
2013-08-09 10:05:00,76.8,76.2,29.84,South,180,1.1,-999.0,98,-99.99,,,0.00,Acu-Link.com,2013-08-09 14:05:00,
2013-08-09 10:20:00,77.7,77.1,29.83,South,180,2.2,-999.0,98,-99.99,,,0.00,Acu-Link.com,2013-08-09 14:20:00,
2013-08-09 10:36:00,79.3,78.7,29.83,South,180,2.2,-999.0,98,-99.99,,,0.00,Acu-Link.com,2013-08-09 14:36:00,
2013-08-09 10:51:00,80.2,79.6,29.84,SSW,202,1.1,-999.0,98,-99.99,,,0.00,Acu-Link.com,2013-08-09 14:51:00,
2013-08-09 11:06:00,80.2,79.6,29.84,SE,135,2.2,-999.0,98,-99.99,,,0.00,Acu-Link.com,2013-08-09 15:06:00,
2013-08-09 11:22:00,81.1,80.5,29.83,SW,225,4.7,-999.0,98,-99.99,,,0.00,Acu-Link.com,2013-08-09 15:22:00,
2013-08-09 11:37:00,82.8,82.2,29.84,South,180,4.2,-999.0,98,-99.99,,,0.00,Acu-Link.com,2013-08-09 15:37:00,
2013-08-09 11:52:00,84.0,83.4,29.82,South,180,2.7,-999.0,98,-99.99,,,0.00,Acu-Link.com,2013-08-09 15:52:00,
2013-08-09 12:08:00,85.1,84.5,29.82,West,270,4.7,-999.0,98,-99.99,,,0.00,Acu-Link.com,2013-08-09 16:08:00,
2013-08-09 12:23:00,84.9,84.3,29.81,South,180,3.2,-999.0,98,-99.99,,,0.00,Acu-Link.com,2013-08-09 16:23:00,
2013-08-09 12:38:00,87.6,87.0,29.83,SW,225,4.2,-999.0,98,-99.99,,,0.00,Acu-Link.com,2013-08-09 16:38:00,
2013-08-09 12:54:00,87.1,86.5,29.81,South,180,13.0,-999.0,98,-99.99,,,0.00,Acu-Link.com,2013-08-09 16:54:00,
2013-08-09 13:09:00,88.2,87.6,29.80,South,180,4.2,-999.0,98,-99.99,,,0.00,Acu-Link.com,2013-08-09 17:09:00,
2013-08-09 13:24:00,89.8,89.2,29.79,SSW,202,2.2,-999.0,98,-99.99,,,0.00,Acu-Link.com,2013-08-09 17:24:00,
2013-08-09 13:39:00,91.2,90.6,29.78,SSE,157,4.7,-999.0,98,-99.99,,,0.00,Acu-Link.com,2013-08-09 17:39:00,
2013-08-09 13:54:00,92.1,91.4,29.79,NNE,22,2.7,-999.0,98,-99.99,,,0.00,Acu-Link.com,2013-08-09 17:54:00,
2013-08-09 14:09:00,92.8,90.1,29.78,South,180,2.7,-999.0,92,-99.99,,,0.00,Acu-Link.com,2013-08-09 18:09:00,
2013-08-09 14:24:00,93.7,87.7,29.78,SSW,202,7.3,-999.0,83,-99.99,,,0.00,Acu-Link.com,2013-08-09 18:24:00,
2013-08-09 14:39:00,95.2,86.4,29.79,WSW,247,5.3,-999.0,76,-99.99,,,0.00,Acu-Link.com,2013-08-09 18:39:00,
2013-08-09 14:55:00,95.5,88.7,29.78,SSE,157,6.3,-999.0,81,-99.99,,,0.00,Acu-Link.com,2013-08-09 18:55:00,
2013-08-09 15:10:00,93.7,87.7,29.76,West,270,5.3,-999.0,83,-99.99,,,0.00,Acu-Link.com,2013-08-09 19:10:00,
2013-08-09 15:25:00,94.8,87.6,29.75,SW,225,3.2,-999.0,80,-99.99,,,0.00,Acu-Link.com,2013-08-09 19:25:00,
2013-08-09 15:40:00,95.2,88.0,29.74,SSE,157,2.2,-999.0,80,-99.99,,,0.00,Acu-Link.com,2013-08-09 19:40:00,
2013-08-09 15:56:00,97.2,87.1,29.74,WSW,247,4.7,-999.0,73,-99.99,,,0.00,Acu-Link.com,2013-08-09 19:56:00,
2013-08-09 16:11:00,95.7,85.6,29.74,SW,225,5.3,-999.0,73,-99.99,,,0.00,Acu-Link.com,2013-08-09 20:11:00,
2013-08-09 16:26:00,94.5,86.9,29.74,West,270,4.2,-999.0,79,-99.99,,,0.00,Acu-Link.com,2013-08-09 20:26:00,
2013-08-09 16:42:00,92.5,89.1,29.75,SSW,202,2.2,-999.0,90,-99.99,,,0.00,Acu-Link.com,2013-08-09 20:42:00,
2013-08-09 16:57:00,94.1,88.1,29.75,WSW,247,6.8,-999.0,83,-99.99,,,0.00,Acu-Link.com,2013-08-09 20:57:00,
2013-08-09 17:12:00,93.0,87.4,29.74,South,180,3.7,-999.0,84,-99.99,,,0.00,Acu-Link.com,2013-08-09 21:12:00,
2013-08-09 17:27:00,89.6,89.0,29.74,South,180,1.7,-999.0,98,-99.99,,,0.00,Acu-Link.com,2013-08-09 21:27:00,
2013-08-09 17:42:00,90.3,89.7,29.76,WNW,292,3.2,-999.0,98,-99.99,,,0.00,Acu-Link.com,2013-08-09 21:42:00,
2013-08-09 17:58:00,88.0,87.4,29.75,South,180,2.2,-999.0,98,-99.99,,,0.00,Acu-Link.com,2013-08-09 21:58:00,
2013-08-09 18:13:00,85.5,84.9,29.76,SW,225,1.7,-999.0,98,-99.99,,,0.00,Acu-Link.com,2013-08-09 22:13:00,
2013-08-09 18:28:00,78.8,78.2,29.77,East,90,1.1,-999.0,98,-99.99,,,0.01,Acu-Link.com,2013-08-09 22:28:00,
2013-08-09 18:44:00,77.2,76.6,29.77,SW,225,0.0,-999.0,98,-99.99,,,0.13,Acu-Link.com,2013-08-09 22:44:00,
2013-08-09 18:59:00,76.6,76.0,29.77,South,180,0.0,-999.0,98,-99.99,,,0.13,Acu-Link.com,2013-08-09 22:59:00,
2013-08-09 19:14:00,76.3,75.7,29.77,WSW,247,0.0,-999.0,98,-99.99,,,0.13,Acu-Link.com,2013-08-09 23:14:00,
2013-08-09 19:30:00,76.1,75.5,29.79,SW,225,0.0,-999.0,98,-99.99,,,0.13,Acu-Link.com,2013-08-09 23:30:00,
2013-08-09 19:45:00,75.9,75.3,29.77,WSW,247,0.0,-999.0,98,-99.99,,,0.14,Acu-Link.com,2013-08-09 23:45:00,
2013-08-09 20:00:00,76.1,75.5,29.77,ESE,112,0.0,-999.0,98,-99.99,,,0.14,Acu-Link.com,2013-08-10 00:00:00,
2013-08-09 20:15:00,75.9,75.3,29.76,North,0,0.0,-999.0,98,-99.99,,,0.14,Acu-Link.com,2013-08-10 00:15:00,
2013-08-09 20:30:00,75.6,75.0,29.80,SSW,202,1.1,-999.0,98,-99.99,,,0.14,Acu-Link.com,2013-08-10 00:30:00,
2013-08-09 20:46:00,75.6,75.0,29.79,SSW,202,0.0,-999.0,98,-99.99,,,0.14,Acu-Link.com,2013-08-10 00:46:00,
2013-08-09 21:01:00,75.2,74.6,29.79,WSW,247,0.0,-999.0,98,-99.99,,,0.14,Acu-Link.com,2013-08-10 01:01:00,
2013-08-09 21:16:00,75.0,74.4,29.80,NW,315,0.0,-999.0,98,-99.99,,,0.14,Acu-Link.com,2013-08-10 01:16:00,
2013-08-09 21:32:00,74.8,74.2,29.80,SSE,157,1.1,-999.0,98,-99.99,,,0.14,Acu-Link.com,2013-08-10 01:32:00,
2013-08-09 21:47:00,74.8,74.2,29.81,South,180,0.0,-999.0,98,-99.99,,,0.14,Acu-Link.com,2013-08-10 01:47:00,
2013-08-09 22:02:00,74.8,74.2,29.82,North,0,0.0,-999.0,98,-99.99,,,0.14,Acu-Link.com,2013-08-10 02:02:00,
2013-08-09 22:18:00,75.0,74.4,29.82,NNE,22,0.0,-999.0,98,-99.99,,,0.14,Acu-Link.com,2013-08-10 02:18:00,
2013-08-09 22:33:00,75.0,74.4,29.82,NNE,22,0.0,-999.0,98,-99.99,,,0.14,Acu-Link.com,2013-08-10 02:33:00,
2013-08-09 22:48:00,74.8,74.2,29.82,NNE,22,0.0,-999.0,98,-99.99,,,0.14,Acu-Link.com,2013-08-10 02:48:00,
2013-08-09 23:03:00,74.7,74.1,29.83,NNE,22,0.0,-999.0,98,-99.99,,,0.14,Acu-Link.com,2013-08-10 03:03:00,
2013-08-09 23:19:00,74.3,73.7,29.83,NNE,22,0.0,-999.0,98,-99.99,,,0.14,Acu-Link.com,2013-08-10 03:19:00,
2013-08-09 23:34:00,74.3,73.7,29.83,NNE,22,0.0,-999.0,98,-99.99,,,0.14,Acu-Link.com,2013-08-10 03:34:00,
2013-08-09 23:49:00,74.1,73.5,29.83,ESE,112,0.0,-999.0,98,-99.99,,,0.14,Acu-Link.com,2013-08-10 03:49:00,